"2016-05-03 00:00:00",1599771,2.53,78.72,24.02,1.331,15.72,104.5896,11.02,12.28,31.38,0,110.8,12.95,11.81,40.7
"2016-05-03 00:00:30",1599772,2.14,70.89,17.52,1.439,14.82,104.5751,10.99,12.14,31.7,0,110.8,12.95,11.78,32.9
"2016-05-03 00:01:00",1599773,1.091,44.69,14.7,1.253,13.32,104.5506,10.92,12.09,31.85,0,110.8,12.95,11.71,6.7
"2016-05-03 00:01:30",1599774,0.432,47.97,16.58,0.434,12.13,104.55,10.92,11.96,31.62,0,110.8,13,11.71,10.0
"2016-05-03 00:02:00",1599775,0.688,37.34,23.08,0.269,11.93,104.5477,10.91,11.94,31.28,0,110.8,13,11.71,359.3
"2016-05-03 00:02:30",1599776,1.254,22.73,7.26,0.304,11.97,104.5421,10.9,11.91,31.14,0,110.8,13,11.69,344.7
"2016-05-03 00:03:00",1599777,1.051,22.84,8.12,0.557,12.27,104.5403,10.9,11.91,31.43,0,110.8,13,11.69,344.8
"2016-05-03 00:03:30",1599778,1.018,26.14,8.66,0.411,12.4,104.547,10.91,11.92,31.69,0,110.8,13,11.70,348.1
"2016-05-03 00:04:00",1599779,1.92,33.52,8.07,0.532,12.46,104.5675,10.97,11.91,31.4,0,110.8,13,11.76,355.5
"2016-05-03 00:04:30",1599780,3.774,42.06,8.96,1.527,15.41,104.5714,10.98,12.14,31.29,0,110.8,12.95,11.77,4.1
"2016-05-03 00:05:00",1599781,2.46,41.11,6.017,1.143,13.07,104.5893,11.02,12,30.94,0,110.8,12.95,11.81,3.1
"2016-05-03 00:05:30",1599782,1.506,27.53,6.374,0.294,12.6,104.6049,11.06,11.97,30.93,0,110.8,13,11.85,349.5
"2016-05-03 00:06:00",1599783,1.606,31.98,8.18,0.301,12.49,104.6225,11.11,12.02,30.69,0,110.8,12.99,11.90,354.0
"2016-05-03 00:06:30",1599784,1.727,27.74,4.117,0.174,12.57,104.6451,11.16,12.05,30.61,0,110.8,12.99,11.96,349.7
"2016-05-03 00:07:00",1599785,1.324,23.57,6.395,0.318,12.69,104.6573,11.2,12.09,30.61,0,110.8,12.99,11.99,345.6
"2016-05-03 00:07:30",1599786,1.532,23.72,8.53,0.487,12.85,104.6827,11.26,12.13,30.59,0,110.8,12.99,12.05,345.7
"2016-05-03 00:08:00",1599787,2.019,33.53,4.945,0.379,12.84,104.6978,11.3,12.18,30.82,0,110.8,12.99,12.09,355.5
"2016-05-03 00:08:30",1599788,1.392,25.53,5.558,0.156,12.9,104.7205,11.36,12.28,30.74,0,110.8,12.99,12.15,347.5
"2016-05-03 00:09:00",1599789,2.33,0.75,23.04,1.542,15.96,104.7329,11.39,12.42,30.63,0,110.8,12.94,12.18,322.8
"2016-05-03 00:09:30",1599790,0.777,16.06,24.19,0.336,12.55,104.7575,11.45,12.3,30.26,0,110.8,12.99,12.24,338.1
"2016-05-03 00:10:00",1599791,1.572,43.47,6.811,0.171,12.1,104.7674,11.48,12.33,30.2,0,110.8,12.99,12.27,5.5
"2016-05-03 00:10:30",1599792,1.972,29.03,6.414,1.261,13.48,104.7913,11.54,12.47,30.11,0,110.8,12.95,12.33,351.0
"2016-05-03 00:11:00",1599793,2.764,31.81,9.31,1.522,14.19,104.8054,11.57,12.56,30.02,0,110.8,12.95,12.37,353.8
"2016-05-03 00:11:30",1599794,2.967,38.86,9.66,1.473,14.62,104.8259,11.63,12.66,30.13,0,110.8,12.95,12.42,0.9
"2016-05-03 00:12:00",1599795,2.324,39.78,7.233,1.418,14.16,104.8324,11.64,12.71,30.05,0,110.8,12.95,12.44,1.8
"2016-05-03 00:12:30",1599796,1.344,40.13,3.874,0.579,12.34,104.858,11.71,12.57,29.79,0,110.8,12.95,12.50,2.1
"2016-05-03 00:13:00",1599797,1.109,38.72,3.553,0.081,12.09,104.8602,11.71,12.59,29.7,0,110.8,13,12.51,0.7
"2016-05-03 00:13:30",1599798,1.158,37.61,4.94,0.192,12.14,104.8785,11.76,12.62,29.65,0,110.8,13,12.55,359.6
"2016-05-03 00:14:00",1599799,0.872,35.93,13.2,0.364,12.48,104.892,11.8,12.65,29.84,0,110.8,13,12.59,357.9
"2016-05-03 00:14:30",1599800,0.356,17.89,13.6,0.359,13.06,104.8937,11.8,12.69,29.77,0,110.8,13,12.59,339.9
"2016-05-03 00:15:00",1599801,0.901,32.16,15.15,0.216,12.81,104.8959,11.81,12.73,29.81,0,110.8,13,12.60,354.2
"2016-05-03 00:15:30",1599802,0.895,54.32,13.05,0.179,12.91,104.9167,11.86,12.74,29.81,0,110.8,13,12.65,16.3
"2016-05-03 00:16:00",1599803,1.849,48.49,9.42,1.451,14.54,104.9271,11.89,12.91,29.86,0,110.8,12.95,12.68,10.5
"2016-05-03 00:16:30",1599804,2.325,22.23,18.01,1.344,15.36,104.9274,11.89,12.89,29.84,0,110.8,12.95,12.68,344.2
"2016-05-03 00:17:00",1599805,1.154,354.5,5.183,0.124,12.87,104.9274,11.89,12.83,29.51,0,110.8,13,12.68,316.5
"2016-05-03 00:17:30",1599806,1.121,4.448,6.456,0.191,12.46,104.9277,11.89,12.84,29.36,0,110.8,13,12.68,326.4
"2016-05-03 00:18:00",1599807,0.687,16.73,11.87,0.3,12.51,104.9322,11.9,12.87,29.49,0,110.8,13,12.69,338.7
"2016-05-03 00:18:30",1599808,0.709,27.04,8.47,0.296,12.52,104.9421,11.92,12.88,29.64,0,110.8,13,12.72,349.0
"2016-05-03 00:19:00",1599809,1.514,32.19,8.96,0.88,13.05,104.9561,11.96,12.91,29.65,0,110.8,12.96,12.75,354.2
"2016-05-03 00:19:30",1599810,2.695,39.61,9.34,1.339,14.76,104.9612,11.97,13.05,29.69,0,110.8,12.96,12.77,1.6
"2016-05-03 00:20:00",1599811,2.465,36.17,12.3,1.331,15.89,104.9612,11.97,13.18,29.67,0,110.8,12.96,12.77,358.2
"2016-05-03 00:20:30",1599812,0.986,18.83,13.16,1.198,14.25,104.9627,11.98,13.05,29.38,0,110.8,12.96,12.77,340.8
"2016-05-03 00:21:00",1599813,0.825,21.55,3.617,0.174,12.47,104.9632,11.98,12.96,29.33,0,110.8,13.01,12.77,343.5
"2016-05-03 00:21:30",1599814,0.325,8.68,18.07,0.253,12.66,104.9677,11.99,12.97,29.26,0,110.8,13.01,12.78,330.7
"2016-05-03 00:22:00",1599815,0.925,25.23,8.06,0.287,12.35,104.9674,11.99,12.97,29.23,0,110.8,13,12.78,347.2
"2016-05-03 00:22:30",1599816,0.761,26.01,5.57,0.141,12.45,104.9695,11.99,12.97,29.23,0,110.8,13,12.79,348.0
"2016-05-03 00:23:00",1599817,1.252,29.79,2.864,0.182,12.49,104.9703,12,12.99,29.11,0,110.8,13,12.79,351.8
"2016-05-03 00:23:30",1599818,1.388,27.7,3.689,0.227,12.66,104.9712,12,13,28.78,0,110.8,13,12.79,349.7
"2016-05-03 00:24:00",1599819,0.923,23.97,5.528,0.283,12.95,104.9756,12.01,13.01,28.86,0,110.8,13,12.80,346.0
"2016-05-03 00:24:30",1599820,1.308,25.69,3.38,0.137,12.94,104.9847,12.03,13.03,28.88,0,110.8,13,12.83,347.7
"2016-05-03 00:25:00",1599821,1.244,27.04,2.82,0.223,13.12,105.0046,12.08,13.03,28.59,0,110.8,13,12.88,349.0
"2016-05-03 00:25:30",1599822,1.386,28.93,4.35,0.897,13.47,105.0144,12.11,13.05,28.51,0,110.8,12.95,12.90,350.9
"2016-05-03 00:26:00",1599823,2.679,37.58,10.01,1.395,15.79,105.023,12.13,13.25,29.02,0,110.8,12.95,12.93,359.6
"2016-05-03 00:26:30",1599824,1.627,28.34,9.02,1.046,13.6,105.0063,12.09,13.06,29.67,0,110.8,12.95,12.88,350.3
"2016-05-03 00:27:00",1599825,1.083,24.44,12.18,0.489,12.93,104.9688,11.99,13.11,29.87,0,110.8,13,12.79,346.4
"2016-05-03 00:27:30",1599826,2.841,41.42,8.13,1.387,15.1,104.9602,11.97,13.16,29.57,0,110.8,12.95,12.76,3.4
"2016-05-03 00:28:00",1599827,1.331,37.95,2.204,0.197,12.39,104.9629,11.98,12.97,28.73,0,110.8,13,12.77,360.0
"2016-05-03 00:28:30",1599828,0.75,35.9,4.804,0.221,12.32,104.9623,11.98,12.96,28.64,0,110.8,13,12.77,357.9
"2016-05-03 00:29:00",1599829,0.97,24.66,7.684,0.359,12.34,104.966,11.99,12.96,28.88,0,110.8,13,12.78,346.7
"2016-05-03 00:29:30",1599830,3.09,30.97,8.43,1.457,15.16,104.9733,12,13.1,29.15,0,110.8,12.96,12.80,353.0
"2016-05-03 00:30:00",1599831,2.064,27.82,11.6,1.592,13.91,104.9879,12.04,13.08,29.15,0,110.8,12.96,12.84,349.8
"2016-05-03 00:30:30",1599832,1.243,15.89,6.609,0.349,12.48,104.9907,12.05,12.99,29.2,0,110.8,13.01,12.84,337.9
"2016-05-03 00:31:00",1599833,1.749,26.28,7.72,0.105,12.37,104.9961,12.06,13,28.93,0,110.8,13.01,12.86,348.3
"2016-05-03 00:31:30",1599834,1.593,37.21,3.611,0.208,12.47,104.9966,12.06,13.01,28.89,0,110.8,13.01,12.86,359.2
"2016-05-03 00:32:00",1599835,1.175,3.055,10.25,0.229,12.98,104.9966,12.06,13.03,29.02,0,110.8,13.01,12.86,325.1
"2016-05-03 00:32:30",1599836,0.798,1.035,7.011,0.262,13.42,104.9966,12.06,13.03,29.19,0,110.8,13.01,12.86,323.0
"2016-05-03 00:33:00",1599837,0.66,6.17,10.06,0.389,13.43,104.9975,12.07,13.04,29.22,0,110.8,13.01,12.86,328.2
"2016-05-03 00:33:30",1599838,0.465,2.988,13.02,0.274,13.74,105.0003,12.07,13.06,29.08,0,110.8,13.01,12.87,325.0
"2016-05-03 00:34:00",1599839,0.892,12.11,18.74,1.159,14.37,104.9972,12.07,13.08,29.1,0,110.8,12.96,12.86,334.1
"2016-05-03 00:34:30",1599840,1.497,358.4,18.14,1.387,16.49,104.9963,12.06,13.3,29.22,0,110.8,12.96,12.86,320.4
"2016-05-03 00:35:00",1599841,1.653,37.42,16.68,1.31,14.97,104.9668,11.99,13.1,28.99,0,110.8,12.96,12.78,359.4
"2016-05-03 00:35:30",1599842,1.954,24.37,12.72,1.514,15.27,104.9494,11.94,13.23,29.6,0,110.8,12.96,12.74,346.4
"2016-05-03 00:36:00",1599843,0.82,22.89,6.343,0.853,12.69,104.9291,11.89,12.98,29.49,0,110.8,12.96,12.68,344.9
"2016-05-03 00:36:30",1599844,0.745,28.37,7.358,0.168,11.96,104.9212,11.87,12.95,29.69,0,110.8,13.01,12.66,350.4
"2016-05-03 00:37:00",1599845,0.893,36.87,6.798,0.146,11.97,104.906,11.83,12.91,29.98,0,110.8,13.01,12.63,358.9
"2016-05-03 00:37:30",1599846,0.846,43.73,7.277,0.199,12.08,104.8891,11.79,12.87,30.02,0,110.8,13.01,12.58,5.7
"2016-05-03 00:38:00",1599847,0.491,30.74,6.209,0.203,12.32,104.8588,11.71,12.85,29.95,0,110.8,13.01,12.50,352.7
"2016-05-03 00:38:30",1599848,1.074,48.74,6.53,0.138,12.34,104.8225,11.62,12.79,29.91,0,110.8,13.01,12.41,10.7
"2016-05-03 00:39:00",1599849,0.977,44.37,5.88,0.1,12.58,104.7901,11.54,12.75,30.32,0,110.8,13.01,12.33,6.4
"2016-05-03 00:39:30",1599850,2.154,40.44,11.02,1.476,15.34,104.7617,11.46,12.82,30.77,0,110.8,12.96,12.25,2.4
"2016-05-03 00:40:00",1599851,0.518,26.56,17.81,0.27,13.2,104.7603,11.46,12.65,30.98,0,110.8,13,12.25,348.6
"2016-05-03 00:40:30",1599852,0.103,17.58,13.58,0.221,13.06,104.7555,11.45,12.54,30.78,0,110.8,13.01,12.24,339.6
"2016-05-03 00:41:00",1599853,0.78,27.81,8.82,0.271,12.66,104.731,11.38,12.52,30.74,0,110.8,13,12.18,349.8
"2016-05-03 00:41:30",1599854,1.109,23.41,4.4,0.211,12.74,104.7265,11.37,12.47,30.72,0,110.8,13.01,12.16,345.4
"2016-05-03 00:42:00",1599855,0.797,27.11,6.877,0.242,12.87,104.7265,11.37,12.45,31.08,0,110.8,13.01,12.16,349.1
"2016-05-03 00:42:30",1599856,0.203,2.825,17.99,0.235,13.38,104.7265,11.37,12.44,31.06,0,110.8,13,12.16,324.8
"2016-05-03 00:43:00",1599857,0.18,5.365,19.25,0.1,13.4,104.7232,11.36,12.41,31.13,0,110.7,13.01,12.16,327.4
"2016-05-03 00:43:30",1599858,0.109,11.16,15.91,0.217,13.45,104.7144,11.34,12.39,31.22,0,110.8,13,12.13,333.2
"2016-05-03 00:44:00",1599859,0.223,16.07,14.31,0.347,13.34,104.7153,11.34,12.39,31.42,0,110.8,13.01,12.14,338.1
"2016-05-03 00:44:30",1599860,0.55,27.57,5.978,0.13,13.15,104.7102,11.33,12.36,31.61,0,110.8,13.01,12.12,349.6
"2016-05-03 00:45:00",1599861,1.697,46.74,8.29,1.356,14.75,104.6939,11.29,12.45,31.65,0,110.8,12.96,12.08,8.7
"2016-05-03 00:45:30",1599862,1.995,44.3,8.88,1.369,14.7,104.6928,11.29,12.44,31.35,0,110.8,12.96,12.08,6.3
"2016-05-03 00:46:00",1599863,1.732,38.49,6.644,1.256,14.35,104.6961,11.29,12.42,31.2,0,110.7,12.96,12.09,0.5
"2016-05-03 00:46:30",1599864,1.841,42.54,6.149,1.291,14.3,104.7209,11.36,12.41,31.38,0,110.8,12.96,12.15,4.5
"2016-05-03 00:47:00",1599865,0.842,40.19,5.154,0.233,12.13,104.7265,11.37,12.33,31.37,0,110.8,13.01,12.16,2.2
"2016-05-03 00:47:30",1599866,0.622,31.36,15.99,0.381,11.99,104.7277,11.38,12.35,31.27,0,110.8,13.01,12.17,353.4
"2016-05-03 00:48:00",1599867,0.977,36.65,5.438,0.28,11.9,104.7524,11.44,12.38,31,0,110.8,13.01,12.23,358.6
"2016-05-03 00:48:30",1599868,0.782,33.5,5.768,0.155,11.94,104.7603,11.46,12.39,30.58,0,110.8,13.01,12.25,355.5
"2016-05-03 00:49:00",1599869,0.598,25.89,7.21,0.164,12.25,104.7628,11.47,12.42,30.27,0,110.8,13.01,12.26,347.9
"2016-05-03 00:49:30",1599870,0.019,11.57,13.23,0.148,12.84,104.7867,11.53,12.45,29.85,0,110.8,13.01,12.32,333.6
"2016-05-03 00:50:00",1599871,0.498,29.78,6.797,0.151,12.45,104.7938,11.54,12.47,29.66,0,110.8,13.01,12.34,351.8
"2016-05-03 00:50:30",1599872,0.05,3.464,17.47,0.168,13.22,104.7941,11.55,12.49,29.88,0,110.8,13.01,12.34,325.5
"2016-05-03 00:51:00",1599873,0.628,19,7.539,0.235,12.57,104.8062,11.58,12.52,29.89,0,110.8,13.01,12.37,341.0
"2016-05-03 00:51:30",1599874,0.439,25.48,6.554,0.135,12.82,104.8261,11.63,12.54,29.94,0,110.8,13.01,12.42,347.5
"2016-05-03 00:52:00",1599875,0.499,24.39,3.654,0.106,12.9,104.8278,11.63,12.57,29.96,0,110.8,13.01,12.42,346.4
"2016-05-03 00:52:30",1599876,0.695,21.55,5.272,0.12,12.94,104.8365,11.65,12.58,29.94,0,110.8,13.01,12.45,343.5
"2016-05-03 00:53:00",1599877,0.646,19.79,4.308,0.081,12.99,104.8557,11.7,12.61,29.68,0,110.8,13.01,12.50,341.8
"2016-05-03 00:53:30",1599878,0.987,13.85,8.42,1.101,14.22,104.8616,11.72,12.75,29.57,0,110.8,12.97,12.51,335.9
"2016-05-03 00:54:00",1599879,1.998,34.14,11.15,1.425,15.06,104.8633,11.72,12.76,29.56,0,110.8,12.96,12.52,356.1
"2016-05-03 00:54:30",1599880,2.09,41.69,8.08,1.51,15.96,104.8863,11.78,12.92,29.66,0,110.8,12.96,12.57,3.7
"2016-05-03 00:55:00",1599881,1.564,42.29,6.018,1.256,14.43,104.8953,11.8,12.82,29.49,0,110.8,12.96,12.60,4.3
"2016-05-03 00:55:30",1599882,0.776,39.82,2.513,0.099,12.67,104.8996,11.82,12.73,29.17,0,110.8,13.01,12.61,1.8
"2016-05-03 00:56:00",1599883,0.954,35.61,3.26,0.283,12.77,104.9176,11.86,12.83,29.04,0,110.8,13.01,12.66,357.6
"2016-05-03 00:56:30",1599884,2.516,42.42,7.272,1.444,15.31,104.9291,11.89,12.94,29.07,0,110.8,12.96,12.68,4.4
"2016-05-03 00:57:00",1599885,0.956,31.02,3.659,0.547,12.69,104.9291,11.89,12.92,28.91,0,110.8,13.01,12.68,353.0
"2016-05-03 00:57:30",1599886,0.918,32.23,1.632,0.134,12.03,104.9446,11.93,12.86,28.82,0,110.8,13.01,12.72,354.2
"2016-05-03 00:58:00",1599887,1.01,33.38,1.699,0.084,12,104.9626,11.98,12.88,28.71,0,110.8,13.01,12.77,355.4
"2016-05-03 00:58:30",1599888,1.041,30.51,1.95,0.081,12.13,104.9629,11.98,12.91,28.61,0,110.8,13.01,12.77,352.5
"2016-05-03 00:59:00",1599889,0.993,32.82,4.038,0.133,12.28,104.9643,11.98,12.93,28.52,0,110.8,13.01,12.77,354.8
"2016-05-03 00:59:30",1599890,0.808,30.82,3.072,0.168,12.44,104.9817,12.03,12.96,28.45,0,110.8,13,12.82,352.8
"2016-05-03 01:00:00",1599891,0.76,26.78,5.059,0.124,12.58,104.9966,12.06,13,28.41,0,110.8,13.01,12.86,348.8
"2016-05-03 01:00:30",1599892,0.474,24.1,3.551,0.108,12.85,104.9966,12.06,12.99,28.36,0,110.8,13.01,12.86,346.1
"2016-05-03 01:01:00",1599893,0.503,27.81,6.223,0.132,12.95,105,12.07,13.03,28.3,0,110.8,13.01,12.87,349.8
"2016-05-03 01:01:30",1599894,0.55,27.43,3.457,0.157,13.02,105.0169,12.12,13.07,28.26,0,110.8,13.01,12.91,349.4
"2016-05-03 01:02:00",1599895,0.719,24.81,4.774,0.121,13.06,105.0276,12.14,13.09,28.14,0,110.8,13.01,12.94,346.8
"2016-05-03 01:02:30",1599896,1.591,25.99,10.49,1.388,15.17,105.0304,12.15,13.23,28.16,0,110.8,12.96,12.94,348.0
"2016-05-03 01:03:00",1599897,1.761,33.51,9.32,1.469,15.57,105.0304,12.15,13.26,28.1,0,110.8,12.96,12.94,355.5
"2016-05-03 01:03:30",1599898,0.889,25.46,3.47,0.971,13.4,105.0343,12.16,13.13,27.91,0,110.8,12.96,12.95,347.5
"2016-05-03 01:04:00",1599899,2.1,25.69,10.55,1.489,15.27,105.0518,12.2,13.37,28.12,0,110.8,12.96,13.00,347.7
"2016-05-03 01:04:30",1599900,1.421,19.67,4.478,0.695,12.85,105.0608,12.23,13.16,27.78,0,110.8,12.97,13.02,341.7
"2016-05-03 01:05:00",1599901,1.775,23.79,6.939,1.214,14.14,105.0641,12.24,13.37,27.86,0,110.8,12.97,13.03,345.8
"2016-05-03 01:05:30",1599902,1.263,20.1,7.538,1.39,13.93,105.0647,12.24,13.31,27.69,0,110.8,12.97,13.03,342.1
"2016-05-03 01:06:00",1599903,0.83,18.72,5.426,0.145,12.12,105.0656,12.24,13.23,27.57,0,110.8,13.01,13.04,340.7
"2016-05-03 01:06:30",1599904,0.533,23.88,3.985,0.097,11.87,105.0653,12.24,13.24,27.59,0,110.8,13.02,13.03,345.9
"2016-05-03 01:07:00",1599905,0.511,24.61,5.739,0.165,11.93,105.0798,12.28,13.24,27.64,0,110.8,13.02,13.07,346.6
"2016-05-03 01:07:30",1599906,0.433,25.81,2.826,0.087,12.22,105.0929,12.31,13.26,27.63,0,110.8,13.02,13.11,347.8
"2016-05-03 01:08:00",1599907,0.249,11.96,10.59,0.176,12.6,105.0989,12.33,13.29,27.51,0,110.8,13.02,13.12,334.0
"2016-05-03 01:08:30",1599908,0.335,18.69,8.29,0.236,12.69,105.1041,12.34,13.29,27.35,0,110.8,13.02,13.13,340.7
"2016-05-03 01:09:00",1599909,0.692,20.4,4.963,0.099,12.65,105.1083,12.35,13.29,27.42,0,110.8,13.02,13.14,342.4
"2016-05-03 01:09:30",1599910,0.411,21.39,9.09,0.229,13,105.1097,12.35,13.32,27.44,0,110.8,13.02,13.15,343.4
"2016-05-03 01:10:00",1599911,0.812,40.46,3.432,0.108,12.86,105.1097,12.35,13.32,27.51,0,110.8,13.02,13.15,2.5
"2016-05-03 01:10:30",1599912,1.246,33.66,7.3,1.311,14.67,105.1127,12.36,13.42,27.58,0,110.8,12.97,13.16,355.7
"2016-05-03 01:11:00",1599913,1.646,32.7,10.44,1.503,15.26,105.1126,12.36,13.55,27.68,0,110.8,12.97,13.16,354.7
"2016-05-03 01:11:30",1599914,0.997,40.14,1.599,0.15,12.74,105.1206,12.38,13.35,27.49,0,110.8,13.02,13.18,2.1
"2016-05-03 01:12:00",1599915,1.045,41.33,2.13,0.103,12.63,105.1329,12.41,13.35,27.58,0,110.8,13.02,13.21,3.3
"2016-05-03 01:12:30",1599916,1.123,49.66,2.706,0.075,12.83,105.1376,12.42,13.37,27.6,0,110.8,13.02,13.22,11.7
"2016-05-03 01:13:00",1599917,2.803,59.54,8.34,1.464,16.2,105.1449,12.44,13.57,27.77,0,110.8,12.97,13.24,21.5
"2016-05-03 01:13:30",1599918,1.73,54.86,5.478,1.212,14.3,105.1468,12.45,13.57,27.73,0,110.8,12.97,13.24,16.9
"2016-05-03 01:14:00",1599919,2.685,62.53,7.418,1.475,15.62,105.1524,12.46,13.57,27.66,0,110.7,12.97,13.26,24.5
"2016-05-03 01:14:30",1599920,1.315,45.34,3.616,0.522,12.82,105.1513,12.46,13.48,27.59,0,110.7,13.02,13.26,7.3
"2016-05-03 01:15:00",1599921,1.176,47.89,1.524,0.099,12.1,105.1498,12.46,13.41,27.56,0,110.7,13.02,13.25,9.9
"2016-05-03 01:15:30",1599922,1.288,45.73,1.72,0.035,12.24,105.1387,12.43,13.41,27.53,0,110.7,13.02,13.22,7.7
"2016-05-03 01:16:00",1599923,1.383,46.97,1.303,0.042,12.48,105.1266,12.4,13.42,27.52,0,110.7,13.02,13.19,9.0
"2016-05-03 01:16:30",1599924,1.41,47.57,1.258,0.038,12.68,105.1316,12.41,13.44,27.53,0,110.7,13.02,13.20,9.6
"2016-05-03 01:17:00",1599925,2.877,56.94,8.23,1.478,15.92,105.1295,12.4,13.6,27.72,0,110.7,12.97,13.20,18.9
"2016-05-03 01:17:30",1599926,1.421,49.12,4.622,0.754,13.45,105.1303,12.41,13.5,27.66,0,110.7,12.97,13.20,11.1
"2016-05-03 01:18:00",1599927,1.313,44.91,1.593,0.087,12.67,105.1143,12.36,13.38,27.6,0,110.7,13.01,13.16,6.9
"2016-05-03 01:18:30",1599928,1.225,46.32,2.172,0.055,12.63,105.0996,12.33,13.38,27.61,0,110.7,13.02,13.12,8.3
"2016-05-03 01:19:00",1599929,1.116,44.39,2.505,0.063,12.71,105.0996,12.33,13.36,27.65,0,110.7,13.02,13.12,6.4
"2016-05-03 01:19:30",1599930,1.038,42.16,1.767,0.064,12.88,105.0991,12.33,13.34,27.54,0,110.7,13.02,13.12,4.2
"2016-05-03 01:20:00",1599931,1.735,45.66,7.348,1.326,14.67,105.0822,12.28,13.47,27.67,0,110.7,12.97,13.08,7.7
"2016-05-03 01:20:30",1599932,2.138,44.17,8.63,1.494,16.11,105.0658,12.24,13.46,27.69,0,110.7,12.97,13.04,6.2
"2016-05-03 01:21:00",1599933,1.392,39.58,8.05,1.369,14.42,105.0658,12.24,13.42,27.64,0,110.7,12.97,13.04,1.6
"2016-05-03 01:21:30",1599934,1.128,44.5,5.098,0.83,13.32,105.0619,12.23,13.35,27.59,0,110.7,12.97,13.03,6.5
"2016-05-03 01:22:00",1599935,1.113,48.72,2.583,0.116,12.23,105.0425,12.18,13.25,27.59,0,110.7,13.02,12.98,10.7
"2016-05-03 01:22:30",1599936,1.232,52.75,1.959,0.086,12.32,105.0321,12.15,13.24,27.72,0,110.7,13.03,12.95,14.8
"2016-05-03 01:23:00",1599937,2.094,56.03,6.937,1.281,13.84,105.0321,12.15,13.27,27.94,0,110.7,12.98,12.95,18.0
"2016-05-03 01:23:30",1599938,2.32,54.34,6.72,1.375,14.65,105.0115,12.1,13.38,28.23,0,110.7,12.98,12.90,16.3
"2016-05-03 01:24:00",1599939,2.062,49.21,5.5,1.213,13.75,104.9983,12.07,13.22,28.02,0,110.7,12.98,12.86,11.2
"2016-05-03 01:24:30",1599940,1.414,48.02,1.329,0.058,12.48,104.9983,12.07,13.15,28.05,0,110.7,13.03,12.86,10.0
"2016-05-03 01:25:00",1599941,1.391,47.95,1.497,0.089,12.54,104.9907,12.05,13.14,28.16,0,110.7,13.03,12.84,10.0
"2016-05-03 01:25:30",1599942,1.542,48.06,2.455,0.074,12.9,104.9668,11.99,13.11,28.19,0,110.7,13.03,12.78,10.1
"2016-05-03 01:26:00",1599943,1.502,47.57,1.003,0.053,13.02,104.9645,11.98,13.08,28.25,0,110.7,13.03,12.78,9.6
"2016-05-03 01:26:30",1599944,2.955,57.05,7.85,1.467,15.83,104.9564,11.96,13.25,28.38,0,110.7,12.98,12.75,19.0
"2016-05-03 01:27:00",1599945,3.198,50.86,7.078,1.495,15.34,104.9364,11.91,13.22,28.39,0,110.7,12.98,12.70,12.9
"2016-05-03 01:27:30",1599946,2.672,52.04,7.421,1.391,14.94,104.9302,11.89,13.21,28.41,0,110.6,12.98,12.69,14.0
"2016-05-03 01:28:00",1599947,1.899,49.21,3.787,0.895,13.41,104.9133,11.85,12.98,28.27,0,110.7,12.98,12.64,11.2
"2016-05-03 01:28:30",1599948,2.056,49.17,4.992,1.001,13.5,104.8994,11.81,13.07,28.44,0,110.7,12.98,12.61,11.2
"2016-05-03 01:29:00",1599949,2.882,51.86,7.04,1.479,14.99,104.899,11.81,13.04,28.41,0,110.7,12.98,12.61,13.9
"2016-05-03 01:29:30",1599950,1.525,43.85,1.435,0.092,12.63,104.8829,11.77,12.91,28.14,0,110.7,13.03,12.57,5.8
"2016-05-03 01:30:00",1599951,1.784,44.3,1.603,0.081,12.44,104.8738,11.75,12.86,28,0,110.7,13.03,12.54,6.3
"2016-05-03 01:30:30",1599952,1.633,41.02,1.373,0.137,12.64,104.8578,11.71,12.83,27.84,0,110.7,13.02,12.50,3.0
"2016-05-03 01:31:00",1599953,1.763,41.66,1.838,0.1,12.84,104.8519,11.69,12.81,27.88,0,110.7,13.02,12.49,3.7
"2016-05-03 01:31:30",1599954,1.91,45.18,1.01,0.052,13,104.8465,11.68,12.79,28.15,0,110.7,13.03,12.47,7.2
"2016-05-03 01:32:00",1599955,2.725,51.28,6.874,1.295,14.92,104.8275,11.63,12.88,28.51,0,110.7,12.98,12.42,13.3
"2016-05-03 01:32:30",1599956,3.384,53.07,8.27,1.478,16.28,104.8197,11.61,12.9,28.72,0,110.7,12.98,12.40,15.1
"2016-05-03 01:33:00",1599957,2.615,51.7,6.162,1.25,14.87,104.7979,11.56,12.81,28.9,0,110.7,12.98,12.35,13.7
"2016-05-03 01:33:30",1599958,2.815,53.52,7.526,1.4,15.13,104.7942,11.55,12.76,29.06,0,110.7,12.98,12.34,15.5
"2016-05-03 01:34:00",1599959,3.377,56.99,7.998,1.507,15.96,104.77,11.48,12.8,29.3,0,110.7,12.97,12.28,19.0
"2016-05-03 01:34:30",1599960,1.927,46.53,1.767,0.539,12.5,104.7629,11.47,12.58,29.29,0,110.6,12.98,12.26,8.5
"2016-05-03 01:35:00",1599961,1.905,46.25,2.82,0.156,12.37,104.7441,11.42,12.56,29.33,0,110.7,13.02,12.21,8.2
"2016-05-03 01:35:30",1599962,1.894,44.8,1.57,0.082,12.53,104.7297,11.38,12.51,29.37,0,110.6,13.02,12.17,6.8
"2016-05-03 01:36:00",1599963,1.725,44.06,1.22,0.07,12.93,104.7196,11.35,12.49,29.47,0,110.6,13.03,12.15,6.1
"2016-05-03 01:36:30",1599964,1.753,43.99,2.174,0.049,13.06,104.6988,11.3,12.45,29.51,0,110.6,13.02,12.09,6.0
"2016-05-03 01:37:00",1599965,2.357,46.53,6.092,1.126,14.13,104.6937,11.29,12.53,29.68,0,110.6,12.98,12.08,8.5
"2016-05-03 01:37:30",1599966,2.987,52.07,7.73,1.434,15.14,104.6695,11.23,12.52,29.84,0,110.6,12.98,12.02,14.1
"2016-05-03 01:38:00",1599967,2.984,52.97,7.231,1.413,15.65,104.6616,11.21,12.54,30.02,0,110.6,12.98,12.00,15.0
"2016-05-03 01:38:30",1599968,3.104,58.38,7.203,1.453,15.69,104.6402,11.15,12.47,30.16,0,110.6,12.99,11.94,20.4
"2016-05-03 01:39:00",1599969,3.189,52.71,7.734,1.505,15.44,104.6284,11.12,12.49,30.42,0,110.6,12.99,11.91,14.7
"2016-05-03 01:39:30",1599970,2.053,46.64,3.859,0.745,12.52,104.618,11.09,12.25,30.15,0,110.6,12.99,11.89,8.6
"2016-05-03 01:40:00",1599971,1.725,47.68,0.918,0.059,12.49,104.5949,11.04,12.22,30.19,0,110.6,13.04,11.83,9.7
"2016-05-03 01:40:30",1599972,1.779,50.48,0.941,0.071,12.68,104.5927,11.03,12.19,30.3,0,110.6,13.04,11.82,12.5
"2016-05-03 01:41:00",1599973,1.659,48.73,2.557,0.057,12.93,104.5691,10.97,12.15,30.4,0,110.6,13.04,11.76,10.7
"2016-05-03 01:41:30",1599974,1.686,48.17,1.165,0.045,13.25,104.5691,10.97,12.13,30.48,0,110.6,13.04,11.76,10.2
"2016-05-03 01:42:00",1599975,2.214,51.67,5.555,1.231,14.49,104.5553,10.93,12.22,30.69,0,110.6,13,11.72,13.7
"2016-05-03 01:42:30",1599976,2.988,54.48,7.303,1.445,15.79,104.5467,10.91,12.25,30.8,0,110.6,13,11.70,16.5
"2016-05-03 01:43:00",1599977,2.684,54.57,7.702,1.384,15.32,104.5411,10.9,12.19,30.79,0,110.6,13,11.69,16.6
"2016-05-03 01:43:30",1599978,2.895,56.79,7.29,1.458,15.51,104.5241,10.85,12.16,30.86,0,110.6,13,11.64,18.8
"2016-05-03 01:44:00",1599979,2.22,56.31,6.355,1.365,14.22,104.5221,10.85,12.07,30.93,0,110.6,13,11.64,18.3
"2016-05-03 01:44:30",1599980,1.203,53.17,1.881,0.095,12.56,104.4962,10.78,11.91,30.93,0,110.6,13.05,11.57,15.2
"2016-05-03 01:45:00",1599981,1.266,56.98,2.524,0.128,12.48,104.4939,10.78,11.89,31.09,0,110.6,13.05,11.57,19.0
"2016-05-03 01:45:30",1599982,1.481,55.66,1.76,0.153,12.41,104.4773,10.73,11.84,31.27,0,110.6,13.05,11.52,17.7
"2016-05-03 01:46:00",1599983,1.086,61.54,5.871,0.053,12.69,104.461,10.69,11.82,31.37,0,110.5,13.05,11.48,23.5
"2016-05-03 01:46:30",1599984,0.986,64.09,1.278,0.07,12.85,104.4534,10.67,11.79,31.5,0,110.5,13.05,11.46,26.1
"2016-05-03 01:47:00",1599985,0.879,65.04,1.327,0.031,13,104.4286,10.61,11.76,31.61,0,110.5,13.05,11.40,27.0
"2016-05-03 01:47:30",1599986,1.722,71.34,6.901,1.347,15.13,104.4272,10.61,11.9,31.84,0,110.5,13,11.40,33.3
"2016-05-03 01:48:00",1599987,1.728,73.25,7.446,1.402,15.19,104.4134,10.57,11.84,31.8,0,110.6,13,11.36,35.2